Philadelphia, PA

7:08 AM EST on February 24, 2017 (GMT -0500)
Northeast Philadelphia

Weather History for KPNE - February, 2014

Change the Weather History Date:

Tuesday, February 4, 2014

  Actual Average Record
Temperature  
Mean Temperature 28 °F -  
Max Temperature 34 °F 40 °F 60 °F (2006)
Min Temperature 21 °F 24 °F 18 °F (2007)
Degree Days  
Heating Degree Days 38    
Moisture  
Dew Point 22 °F    
Average Humidity 75    
Maximum Humidity 91    
Minimum Humidity 64    
Precipitation  
Precipitation 0.00 in - - ()
Sea Level Pressure  
Sea Level Pressure 30.40 in    
Wind  
Wind Speed 6 mph (NE)    
Max Wind Speed 9 mph    
Max Gust Speed -    
Visibility 9 miles    
Events      
Averages and records for this station are not official NWS values.
T = Trace of Precipitation, MM = Missing Value Source: NWS Daily Summary

Daily Weather History Graph

Daily Weather History Graph

Search for Another Location

Airport or City:

Trip Planner

Search our weather history database for the weather conditions in past years. The results will help you decide how hot, cold, wet, or windy it might be!

Date:

Astronomy

Feb. 04, 2014 Rise Set
Actual Time 7:05 AM EST 5:22 PM EST
Civil Twilight 6:37 AM EST 5:51 PM EST
Nautical Twilight 6:05 AM EST 6:23 PM EST
Astronomical Twilight 5:33 AM EST 6:55 PM EST
Moon 9:42 AM EST (2/4) 11:14 PM EST (2/4)
Length of Visible Light 11h 13m
Length of Day
10h 16m
Waxing Crescent, 29% of the Moon is Illuminated
Feb 4
Waxing Crescent
Feb 6
First Quarter
Feb 14
Full
Feb 22
Last Quarter
Mar 1
New

Hourly Weather History & Observations

Time (EST) Temp. Windchill Dew Point Humidity Pressure Visibility Wind Dir Wind Speed Gust Speed Precip Events Conditions
12:54 AM 24.1 °F 17.0 °F 21.9 °F 91% 30.36 in 10.0 mi NNW 5.8 mph - N/A   Clear
1:54 AM 23.0 °F 14.7 °F 18.0 °F 81% 30.39 in 10.0 mi NNW 6.9 mph - N/A   Scattered Clouds
2:54 AM 25.0 °F 15.5 °F 18.0 °F 75% 30.40 in 10.0 mi North 9.2 mph - N/A   Scattered Clouds
3:54 AM 24.1 °F 16.0 °F 17.1 °F 75% 30.40 in 10.0 mi North 6.9 mph - N/A   Overcast
4:54 AM 23.0 °F 13.9 °F 16.0 °F 74% 30.43 in 10.0 mi NNW 8.1 mph - N/A   Overcast
5:54 AM 21.0 °F 16.2 °F 15.1 °F 78% 30.42 in 10.0 mi North 3.5 mph - N/A   Clear
6:28 AM 21.0 °F 13.4 °F 15.1 °F 78% 30.43 in 10.0 mi North 5.8 mph - N/A   Mostly Cloudy
6:54 AM 21.9 °F 14.5 °F 15.1 °F 75% 30.44 in 10.0 mi North 5.8 mph - N/A   Overcast
7:54 AM 23.0 °F 15.8 °F 16.0 °F 74% 30.47 in 10.0 mi North 5.8 mph - N/A   Overcast
8:54 AM 25.0 °F 18.1 °F 17.1 °F 72% 30.49 in 10.0 mi North 5.8 mph - N/A   Overcast
9:54 AM 26.1 °F 18.4 °F 17.1 °F 69% 30.50 in 10.0 mi NNE 6.9 mph - N/A   Overcast
10:54 AM 30.0 °F - 19.9 °F 66% 30.50 in 10.0 mi Calm Calm - N/A   Overcast
11:54 AM 30.0 °F 25.2 °F 21.0 °F 69% 30.47 in 10.0 mi NNE 4.6 mph - N/A   Overcast
12:54 PM 32.0 °F - 21.0 °F 64% 30.45 in 10.0 mi Calm Calm - N/A   Overcast
1:54 PM 33.1 °F 28.7 °F 23.0 °F 66% 30.44 in 10.0 mi North 4.6 mph - N/A   Overcast
2:54 PM 34.0 °F 31.0 °F 24.1 °F 67% 30.41 in 10.0 mi NE 3.5 mph - N/A   Overcast
3:54 PM 33.1 °F 28.7 °F 24.1 °F 70% 30.39 in 10.0 mi ESE 4.6 mph - N/A   Overcast
4:26 PM 32.0 °F 27.5 °F 24.1 °F 73% 30.38 in 10.0 mi ESE 4.6 mph - N/A   Scattered Clouds
4:38 PM 32.0 °F 27.5 °F 24.1 °F 73% 30.39 in 9.0 mi East 4.6 mph - N/A   Mostly Cloudy
4:54 PM 33.1 °F 30.0 °F 25.0 °F 72% 30.40 in 9.0 mi ENE 3.5 mph - N/A   Overcast
5:54 PM 32.0 °F 25.6 °F 25.0 °F 75% 30.39 in 9.0 mi NE 6.9 mph - N/A   Mostly Cloudy
6:43 PM 32.0 °F 27.5 °F 25.0 °F 75% 30.38 in 9.0 mi NE 4.6 mph - N/A   Partly Cloudy
6:54 PM 30.9 °F 27.5 °F 26.1 °F 82% 30.38 in 8.0 mi East 3.5 mph - N/A   Partly Cloudy
7:42 PM 32.0 °F 28.7 °F 26.1 °F 79% 30.39 in 8.0 mi SE 3.5 mph - N/A   Overcast
7:54 PM 32.0 °F - 26.1 °F 79% 30.40 in 8.0 mi Calm Calm - N/A   Overcast
8:54 PM 32.0 °F 26.4 °F 26.1 °F 79% 30.36 in 8.0 mi ESE 5.8 mph - N/A   Overcast
9:54 PM 32.0 °F 25.6 °F 27.0 °F 82% 30.34 in 8.0 mi East 6.9 mph - N/A   Overcast
10:54 PM 32.0 °F 24.8 °F 27.0 °F 82% 30.29 in 8.0 mi East 8.1 mph - N/A   Overcast
11:54 PM 32.0 °F 24.8 °F 27.0 °F 82% 30.23 in 7.0 mi ENE 8.1 mph - 0.00 in   Overcast